Dewpoint
40 40 40 40 39 38 37 36 36 36 35 35 34 34 35 35 35 34 33 33 32 32 32 33 33 33 33 33 32 32 32 33 33 33 33 32 31 31 31 30 29 29 28 27 27 27 26 26 26 26 26 27 27 27 27 27 27 27 27 27 26 26 26 27 27 27 27 27 27
39 40 40 38 37 37 37 37 36 36 36 37 36 36 36 35 35 34 33 33 33 33 33 33 33 34 33 33 33 33 34 34 34 34 33 33 32 31 30 29 29 29 29 29 28 28 27 27 27 26 26 26 26 26 26 26 26 26 26 25 24 24 23 23 24 24 24 24 25
40 40 39 37 36 36 36 37 36 36 35 36 38 37 36 35 35 34 34 34 34 34 34 34 35 35 35 34 35 35 35 35 34 33 33 32 32 31 31 30 30 30 30 30 30 30 29 29 29 28 27 26 26 26 26 26 26 26 26 25 24 24 23 23 22 22 22 22 22
41 40 38 36 35 35 36 36 35 35 36 37 38 38 37 36 35 35 35 35 35 35 35 35 36 37 38 38 36 35 34 33 32 32 31 31 31 31 31 32 31 31 32 32 32 32 31 31 31 30 29 28 27 27 26 26 26 26 26 26 26 25 25 24 24 23 22 22 22
42 40 39 38 37 38 39 37 36 36 37 38 37 36 35 36 36 36 36 36 35 35 34 35 36 37 38 37 34 32 31 31 30 30 31 31 31 31 31 31 31 31 32 34 35 34 33 33 32 31 30 30 29 28 28 28 28 27 27 27 27 26 26 26 26 25 24 24 23
40 42 43 42 40 39 38 38 37 37 38 38 35 34 34 34 34 34 33 33 33 33 33 34 34 34 34 33 31 30 30 30 31 31 32 33 33 31 31 31 32 34 35 35 35 35 35 35 33 31 31 31 30 30 30 30 29 29 28 28 27 27 27 27 26 26 26 26 26
36 37 38 38 39 38 37 37 38 38 37 36 35 34 34 34 34 33 33 32 32 32 31 31 31 31 31 31 30 30 30 30 31 31 31 30 30 30 31 31 32 32 32 31 32 33 34 35 32 31 31 31 31 31 31 31 31 31 30 29 29 28 28 28 27 27 27 27 27
31 31 30 29 31 32 33 33 33 33 32 32 32 32 33 33 32 32 31 31 31 30 30 31 31 31 30 31 31 31 31 30 30 30 30 29 29 29 30 30 30 30 30 31 31 31 31 32 31 31 31 31 30 30 31 31 31 31 31 31 31 31 30 28 27 28 28 28 27
29 28 28 28 28 29 29 30 31 31 31 31 31 31 31 31 31 31 30 29 28 28 29 29 30 30 31 31 31 31 30 29 29 28 29 29 29 29 29 30 30 30 31 31 31 31 31 31 31 31 31 30 30 30 30 30 30 31 31 31 30 30 31 30 30 30 30 29 28
27 27 27 28 30 29 28 29 30 30 30 30 30 30 30 29 30 29 28 27 27 27 27 27 28 29 29 30 29 29 28 28 27 27 28 29 28 28 28 29 29 29 29 30 30 30 30 30 30 30 30 30 29 30 30 30 29 29 29 29 29 29 29 30 30 30 29 29 29
26 26 26 27 29 28 27 29 29 29 29 29 28 28 29 29 29 28 27 26 26 26 26 26 28 29 28 28 28 27 28 29 29 28 26 26 26 26 26 26 26 25 25 26 27 28 28 28 28 28 28 28 28 28 28 28 28 28 28 28 28 28 28 28 28 28 28 28 28
26 26 26 27 27 27 28 29 28 28 27 27 26 26 27 27 27 26 25 25 25 25 25 26 27 27 26 26 27 26 26 26 26 25 24 23 22 22 21 21 21 20 20 21 23 24 24 24 25 24 25 26 26 26 26 26 26 26 26 26 27 27 27 27 27 27 27 27 27
26 27 27 27 27 28 28 28 27 27 26 26 26 25 25 25 25 24 23 23 23 22 21 22 23 23 23 22 23 23 23 22 21 20 20 20 19 19 18 18 18 18 19 20 23 23 22 21 21 20 20 22 24 25 26 25 25 25 25 26 26 26 26 25 26 26 26 27 27
27 28 28 28 27 27 27 27 26 26 26 26 25 25 24 24 22 22 21 21 21 20 20 21 21 21 21 20 20 20 19 19 19 19 19 19 19 19 19 19 19 19 19 21 23 22 21 20 19 19 18 19 21 23 24 23 23 23 24 24 24 24 24 24 24 25 26 26 26
29 29 28 28 27 27 26 26 26 26 26 25 24 23 22 21 20 20 21 21 20 21 22 21 21 22 22 23 22 21 20 20 20 20 20 20 20 20 19 19 19 19 19 20 21 22 21 19 19 18 18 18 19 19 20 21 22 22 23 22 23 23 23 23 24 24 25 26 25
29 28 28 27 26 26 26 25 24 24 24 23 22 21 21 20 20 21 22 22 21 22 22 22 21 22 23 26 25 23 22 22 21 21 21 20 20 20 19 19 19 19 18 18 20 21 21 22 22 21 20 20 19 19 19 20 22 22 22 22 22 22 22 23 23 24 24 25 25
27 26 26 25 24 23 23 23 22 22 22 22 21 21 21 21 21 22 22 21 21 21 21 21 22 23 24 25 26 25 24 23 22 22 22 21 21 20 20 20 19 19 19 19 19 19 20 22 23 23 23 23 22 21 21 21 22 22 23 23 23 23 24 24 24 24 25 25 26
24 23 22 22 22 22 22 22 21 21 21 21 21 21 21 22 21 21 22 21 23 22 22 22 23 24 25 26 26 26 25 24 23 22 22 22 22 21 21 20 20 20 20 20 20 20 20 20 22 23 24 25 24 23 23 23 23 23 23 24 24 25 25 25 25 26 26 26 26
22 21 21 21 21 21 21 21 21 20 20 20 19 20 20 20 20 21 21 22 23 24 25 24 24 25 25 25 26 26 25 24 23 23 22 22 22 22 22 22 22 22 22 22 22 22 22 22 23 25 25 25 25 25 25 25 24 25 25 25 26 26 26 26 26 26 26 26 26
21 21 20 20 21 21 21 21 20 20 20 19 19 19 19 20 20 21 21 21 24 27 28 26 26 25 25 26 26 26 26 26 25 24 23 23 23 23 22 23 23 23 23 23 23 23 24 24 25 26 26 25 26 26 26 26 26 26 26 26 27 26 26 26 26 25 25 25 25
21 21 21 21 21 21 21 21 21 21 20 20 19 19 19 20 21 21 22 23 27 29 29 28 27 26 26 26 26 26 26 26 26 26 25 25 24 24 24 25 25 25 25 25 25 25 25 25 26 26 27 27 27 27 27 27 27 27 27 27 27 26 26 26 25 25 24 24 24
22 22 23 23 23 22 22 22 22 21 21 20 20 19 19 19 20 22 25 28 29 29 29 29 28 27 27 27 27 27 27 28 28 28 27 27 26 26 26 27 27 26 26 26 26 26 26 27 27 28 28 28 27 27 27 28 27 27 27 27 26 26 26 25 24 24 24 23 23
25 26 26 26 26 25 24 23 22 22 21 20 20 19 19 19 21 24 27 29 29 29 29 28 29 29 29 29 29 29 29 29 29 29 28 28 28 27 27 28 28 28 27 27 27 27 27 28 28 28 28 27 27 27 27 28 28 27 27 26 26 26 25 25 24 24 23 23 23
30 30 30 29 27 26 24 23 22 22 21 20 19 19 19 19 22 24 26 27 27 28 28 29 30 30 30 30 30 29 29 29 29 29 28 28 28 28 28 29 29 29 29 29 29 30 29 29 28 27 27 26 27 27 27 28 28 27 27 26 26 26 25 25 24 24 24 23 24
32 31 30 28 26 25 23 22 22 21 20 19 19 19 20 20 22 24 25 26 27 28 29 30 31 30 30 30 30 30 30 29 29 29 29 29 29 29 29 29 29 29 29 29 31 31 31 30 29 28 27 26 27 27 28 28 28 28 27 27 26 26 25 25 25 25 24 24 24
31 29 27 25 24 23 22 22 21 21 20 20 20 20 20 21 22 22 24 25 27 29 30 30 31 31 31 30 30 30 30 30 29 29 29 29 29 29 29 29 29 28 28 29 31 31 31 32 31 30 28 28 28 28 28 28 28 28 27 27 26 26 25 25 25 25 25 25 24
27 25 24 22 22 21 21 21 21 21 21 21 21 21 21 21 22 22 24 25 26 28 30 30 31 31 31 30 31 31 30 30 30 30 29 29 29 28 28 27 28 28 28 29 30 31 31 32 33 32 30 28 28 28 28 27 27 27 26 26 26 26 25 25 25 25 25 25 25
23 22 22 21 21 21 21 22 21 21 21 21 21 22 22 22 23 24 25 25 26 27 29 30 30 30 29 29 30 30 29 29 29 29 29 28 27 27 27 27 27 28 29 30 31 31 32 32 32 32 31 29 28 28 27 26 26 26 26 26 26 26 26 26 26 26 26 25 25
22 22 22 22 22 22 22 22 22 22 22 22 23 23 24 25 26 27 27 27 27 28 28 28 27 28 29 29 29 29 29 30 29 29 28 27 26 27 27 27 26 26 28 30 31 31 32 32 32 31 31 31 29 28 27 26 26 25 25 25 25 26 26 26 26 26 26 26 26
22 22 22 22 22 23 23 22 22 23 23 23 24 26 26 27 27 27 27 26 26 26 26 26 26 27 28 29 29 28 28 27 28 29 29 29 28 27 26 26 25 26 28 30 31 31 31 31 31 31 31 31 29 27 26 26 26 26 26 26 26 26 26 26 26 26 26 26 26
22 22 23 23 23 24 24 24 24 24 25 25 26 26 27 27 28 27 27 26 26 26 26 26 26 26 26 26 26 25 25 25 26 27 27 27 27 26 26 25 25 26 28 30 31 31 31 31 31 31 30 30 28 27 27 26 26 26 26 26 26 26 26 26 26 26 26 26 27
24 24 24 24 25 25 25 25 26 26 26 26 26 27 28 28 28 27 27 26 26 26 26 26 25 25 25 23 23 22 22 23 25 25 26 26 26 26 26 26 26 26 28 30 31 31 31 31 31 30 30 30 28 28 28 27 27 27 27 27 27 27 27 27 27 27 27 27 27
26 26 26 26 26 27 27 27 28 28 29 28 28 28 28 28 28 27 27 26 26 26 25 25 25 24 23 22 21 21 22 23 25 26 26 26 25 25 25 25 26 26 28 30 30 31 30 30 30 30 29 29 29 28 28 28 28 28 28 28 28 28 28 28 28 28 28 28 28
30 29 28 28 28 29 29 30 30 30 30 30 29 29 29 28 28 27 27 26 26 25 25 24 23 23 22 21 21 22 23 24 26 26 26 26 25 25 25 26 26 27 29 30 30 30 30 30 30 29 29 29 29 29 28 28 28 28 28 28 29 29 29 29 29 29 29 29 28
30 30 29 30 29 29 29 29 29 30 30 29 29 30 29 28 27 26 26 25 24 24 23 23 22 22 21 21 21 22 24 27 27 28 28 28 27 27 26 26 26 27 29 29 30 30 30 29 29 29 29 29 29 29 29 28 28 29 29 29 29 29 29 29 29 29 29 29 29
28 30 31 31 29 29 29 28 28 28 29 30 31 31 31 28 26 25 24 23 23 22 22 21 21 20 20 21 21 22 24 26 27 29 30 30 29 28 26 26 26 27 28 29 29 29 29 29 29 29 30 29 29 29 29 29 29 29 29 29 29 30 30 30 30 30 30 29 29
27 30 31 30 27 26 27 28 28 28 29 31 31 31 29 26 25 23 22 22 22 21 20 20 19 19 20 21 21 22 23 24 25 27 30 30 30 28 27 26 26 26 27 28 29 29 29 29 29 29 29 29 29 28 28 29 29 29 29 29 30 30 30 30 31 31 31 31 31
26 27 28 27 26 26 26 28 28 28 28 28 27 26 25 24 23 22 22 21 21 20 19 19 18 18 19 21 22 23 25 25 26 28 30 30 30 28 27 26 26 26 27 28 28 29 29 29 29 30 29 29 28 28 29 29 29 30 30 30 30 30 31 32 32 33 33 32 33
23 23 23 24 26 26 26 27 27 27 27 26 25 24 23 22 22 21 21 21 20 19 19 18 18 19 20 21 22 24 25 26 26 28 29 30 29 28 27 26 26 26 26 28 28 29 29 29 30 30 30 29 29 29 29 30 30 30 30 30 31 31 32 32 32 31 31 30 31
23 23 23 24 25 25 25 25 26 26 26 26 24 23 22 22 21 21 21 20 20 19 18 17 18 18 19 20 21 23 24 26 26 28 29 29 29 28 28 27 26 26 26 27 28 29 29 30 30 30 30 30 30 31 31 31 31 31 31 31 31 31 31 30 28 28 27 27 28
24 24 24 24 25 25 25 25 25 25 25 25 24 22 22 21 21 21 20 20 19 18 17 17 18 18 19 21 22 22 24 25 26 27 28 28 28 28 28 27 26 26 26 27 28 29 30 30 30 30 30 30 31 32 32 32 31 31 31 31 30 29 27 27 26 27 27 27 27